Location: Bretagne
(43.8474°N, 0.4650°W)
Time: 23:07:33
(UTC+00:00)

NOSS 3-4 (A) - Visible Passes

Search period start: 18 April 2026 00:00
Search period end: 28 April 2026 00:00
Orbit: 769 x 1442 km, 63.4° (Epoch: 10 January)

Date Brightness Start Highest point End Pass type
(mag) Time Alt. Az. Time Alt. Az. Time Alt. Az.
18 Apr 6.3 01:05:25 10° NNW 01:08:55 15° NNE 01:12:40 10° NE visible
18 Apr 5.3 02:55:37 10° NNW 03:01:45 38° NE 03:08:50 10° ESE visible
18 Apr 4.0 20:31:53 10° WSW 20:37:01 52° NW 20:42:40 10° NNE visible
18 Apr 6.0 22:25:57 10° WNW 22:29:22 16° NNW 22:33:03 10° NNE visible
19 Apr 6.4 00:20:21 10° NNW 00:23:08 13° N 00:26:03 10° NE visible
19 Apr 5.7 02:10:50 10° NNW 02:16:23 28° NE 02:22:39 10° E visible
19 Apr 3.9 04:01:08 10° NW 04:08:02 89° SW 04:16:10 10° SE visible
19 Apr 3.2 19:46:44 10° SW 19:51:58 83° NW 19:57:43 10° NE visible
19 Apr 5.7 21:39:43 10° WNW 21:43:47 21° NNW 21:48:11 10° NNE visible
19 Apr 6.4 23:34:55 10° NNW 23:37:17 12° N 23:39:47 10° NNE visible
20 Apr 6.0 01:26:04 10° NNW 01:30:52 21° NNE 01:36:13 10° ENE visible
20 Apr 4.3 03:16:14 10° NNW 03:22:58 65° NE 03:30:54 10° SE visible
20 Apr 5.3 20:53:44 10° W 20:58:19 28° NW 21:03:21 10° NNE visible
20 Apr 6.3 22:48:56 10° NNW 22:51:27 13° N 22:54:07 10° NNE visible
21 Apr 6.2 00:41:15 10° NNW 00:45:14 17° NNE 00:49:34 10° ENE visible
21 Apr 4.9 02:31:24 10° NNW 02:37:48 45° NE 02:45:15 10° ESE visible
21 Apr 4.1 04:22:09 10° NW 04:28:52 49° WSW 04:36:37 10° S visible
21 Apr 4.6 20:08:02 10° WSW 20:13:01 40° NW 20:18:30 10° NNE visible
21 Apr 6.2 22:02:38 10° NW 22:05:41 14° NNW 22:08:56 10° NNE visible
21 Apr 6.3 23:56:20 10° NNW 23:59:29 14° NNE 00:02:52 10° NE visible
22 Apr 5.4 01:46:37 10° NNW 01:52:31 33° NE 01:59:17 10° E visible
22 Apr 3.8 03:37:02 10° NW 03:43:56 73° WSW 03:52:02 10° SSE visible
22 Apr 3.7 19:22:41 10° SW 19:27:52 63° NW 19:33:36 10° NNE visible
22 Apr 6.0 21:16:19 10° WNW 21:20:01 18° NNW 21:24:00 10° NNE visible
22 Apr 6.4 23:11:09 10° NNW 23:13:41 12° N 23:16:21 10° NNE visible
23 Apr 5.7 01:01:50 10° NNW 01:07:05 25° NNE 01:12:59 10° E visible
23 Apr 4.0 02:52:04 10° NW 02:58:56 79° NE 03:07:00 10° SE visible
23 Apr 5.6 20:30:11 10° W 20:34:28 23° NNW 20:39:09 10° NNE visible
23 Apr 6.3 22:25:28 10° NNW 22:27:50 12° N 22:30:20 10° NNE visible
24 Apr 6.0 00:17:04 10° NNW 00:21:31 19° NNE 00:26:27 10° ENE visible
24 Apr 4.5 02:07:12 10° NNW 02:13:49 56° NE 02:21:35 10° SE visible
24 Apr 4.4 03:58:13 10° NW 04:04:40 39° WSW 04:12:03 10° S visible
24 Apr 5.1 19:44:18 10° WSW 19:49:05 32° NW 19:54:19 10° NNE visible
24 Apr 6.2 21:39:19 10° NW 21:42:02 13° N 21:44:54 10° NNE visible
24 Apr 6.2 23:32:13 10° NNW 23:35:50 15° NNE 23:39:46 10° NE visible
25 Apr 5.0 01:22:23 10° NNW 01:28:36 40° NE 01:35:48 10° ESE visible
25 Apr 3.9 03:12:59 10° NW 03:19:48 58° WSW 03:27:45 10° SSE visible
25 Apr 6.1 20:52:58 10° NW 20:56:18 16° NNW 20:59:51 10° NNE visible
25 Apr 6.3 22:47:11 10° NNW 22:50:04 13° N 22:53:06 10° NE visible
26 Apr 5.4 00:37:37 10° NNW 00:43:15 29° NE 00:49:40 10° E visible
26 Apr 3.8 02:27:56 10° NW 02:34:50 84° SW 02:42:58 10° SSE visible
26 Apr 5.1 04:20:18 10° WNW 04:25:10 19° WSW 04:30:27 10° SSW visible
26 Apr 5.9 20:06:43 10° WNW 20:10:40 20° NNW 20:14:57 10° NNE visible
26 Apr 6.3 22:01:50 10° NNW 22:04:14 12° N 22:06:45 10° NNE visible
26 Apr 5.8 23:52:50 10° NNW 23:57:46 22° NNE 00:03:16 10° ENE visible
27 Apr 4.1 01:43:01 10° NNW 01:49:48 69° NE 01:57:46 10° SE visible
27 Apr 4.6 03:34:24 10° NW 03:40:28 30° WSW 03:47:17 10° S visible
27 Apr 6.2 21:15:56 10° NNW 21:18:24 12° N 21:20:59 10° NNE visible
27 Apr 6.0 23:08:02 10° NNW 23:12:09 17° NNE 23:16:39 10° ENE visible
